DW9313 Weather Reports


time (UTC)temp
C
wind
direction
speed
KPH
gust
KPH
rain 1hr
cm
rain 24hr
cm
rain mn
cm
humidity
%
barometer
mb
20260902060727 17 158 1.6 14.5 0.15 1.24 1.22 98 1010.7
20260902060227 16 175 8.0 16.1 0.18 1.24 1.22 98 1010.6
20260902055727 16 222 4.8 12.9 0.18 1.22 1.19 98 1010.8
20260902055227 16 189 4.8 12.9 0.20 1.22 1.19 98 1010.8
20260902054727 16 178 6.4 20.9 0.23 1.22 1.19 98 1010.7
20260902054227 16 180 3.2 12.9 0.28 1.19 1.17 98 1010.8
20260902053727 16 170 8.0 14.5 0.30 1.19 1.17 98 1011.0
20260902053227 16 163 9.7 16.1 0.30 1.17 1.17 98 1011.0
20260902052727 16 151 9.7 19.3 0.33 1.17 1.17 98 1011.1
20260902052228 16 159 9.7 14.5 0.33 1.17 1.14 98 1011.3
20260902051727 16 173 11.3 19.3 0.30 1.12 1.09 98 1011.3
20260902051226 16 171 9.7 19.3 0.28 1.09 1.09 98 1011.5
20260902050728 16 143 9.7 16.1 0.30 1.09 1.09 98 1011.5
20260902050229 16 150 8.0 19.3 0.28 1.07 1.04 98 1011.7
20260902045727 16 152 9.7 19.3 0.25 1.04 1.02 98 1011.7
20260902045228 16 148 11.3 20.9 0.28 1.02 0.99 98 1011.9
20260902044727 16 169 11.3 20.9 0.25 0.99 0.97 98 1012.0
20260902044228 16 152 11.3 20.9 0.23 0.91 0.89 98 1012.0
20260902043728 16 151 8.0 19.3 0.23 0.89 0.89 98 1012.2
20260902043228 16 150 9.7 20.9 0.20 0.89 0.86 97 1012.1
20260902042729 16 163 9.7 16.1 0.20 0.86 0.84 98 1012.0
20260902042228 16 149 11.3 20.9 0.20 0.84 0.81 98 1012.1
20260902041728 16 161 9.7 20.9 0.18 0.81 0.79 97 1012.2
20260902041227 16 164 11.3 22.5 0.20 0.81 0.79 97 1012.4
20260902040728 16 166 11.3 20.9 0.20 0.79 0.79 97 1012.6
20260902040228 16 147 9.7 19.3 0.20 0.79 0.76 97 1012.7
20260902035728 16 163 9.7 19.3 0.23 0.79 0.76 97 1012.7
20260902035229 16 153 9.7 20.9 0.20 0.74 0.71 97 1012.8
20260902034727 16 178 9.7 24.1 0.20 0.71 0.71 97 1012.9
20260902034228 16 151 8.0 16.1 0.20 0.71 0.69 97 1012.8
20260902033228 15 177 4.8 12.9 0.23 0.69 0.66 97 1013.2
20260902032728 15 165 8.0 14.5 0.23 0.66 0.64 97 1013.2
20260902032228 15 178 6.4 22.5 0.20 0.64 0.61 97 1013.4
20260902031730 15 159 9.7 19.3 0.23 0.64 0.61 97 1013.6
20260902031228 15 165 4.8 12.9 0.20 0.61 0.61 97 1013.6
20260902030728 15 185 3.2 9.7 0.20 0.61 0.58 96 1013.7
20260902030228 15 177 4.8 12.9 0.20 0.58 0.56 96 1013.8
20260902025729 15 179 3.2 9.7 0.20 0.56 0.53 96 1013.8
20260902025229 15 177 9.7 19.3 0.20 0.53 0.51 96 1013.9
20260902024728 15 177 4.8 16.1 0.20 0.51 0.51 97 1014.1
20260902023728 15 147 4.8 9.7 0.15 0.46 0.43 96 1014.1
20260902022728 15 136 1.6 4.8 0.15 0.43 0.43 96 1014.3
20260902022229 15 147 3.2 9.7 0.15 0.43 0.43 95 1014.3
20260902021729 15 169 4.8 9.7 0.13 0.43 0.41 95 1014.4
20260902021228 15 149 3.2 9.7 0.15 0.43 0.41 95 1014.5
20260902020728 15 159 4.8 9.7 0.13 0.41 0.38 95 1014.5
20260902020229 15 156 3.2 9.7 0.13 0.38 0.36 95 1014.6
20260902015729 16 166 4.8 9.7 0.10 0.36 0.33 95 1014.8
20260902015229 16 154 8.0 14.5 0.10 0.33 0.33 95 1014.9
20260902014730 16 165 3.2 8.0 0.08 0.33 0.30 96 1014.9
20260902013729 16 178 1.6 4.8 0.10 0.33 0.30 95 1015.1
20260902013228 16 134 1.6 12.9 0.13 0.33 0.30 96 1014.9
20260902012729 16 167 3.2 11.3 0.13 0.30 0.28 96 1015.0
20260902012228 16 171 3.2 9.7 0.13 0.30 0.28 95 1015.1
20260902011229 16 181 3.2 11.3 0.15 0.28 0.25 95 1015.3
20260902010229 16 200 4.8 9.7 0.15 0.25 0.23 95 1015.4
20260902005729 16 187 3.2 9.7 0.15 0.25 0.23 95 1015.4
20260902004731 16 178 8.0 16.1 0.18 0.23 0.23 95 1015.5
20260902004229 16 180 6.4 12.9 0.18 0.23 0.20 95 1015.6
20260902003729 16 168 4.8 14.5 0.20 0.23 0.20 95 1015.6
20260902003231 16 171 4.8 9.7 0.18 0.20 0.18 95 1015.6
20260902002730 16 141 1.6 8.0 0.15 0.18 0.15 95 1015.7
20260902002229 16 152 1.6 4.8 0.15 0.18 0.15 95 1015.8
20260902001729 16 152 1.6 4.8 0.15 0.15 0.15 95 1015.8
20260902001230 16 185 3.2 8.0 0.13 0.15 0.13 94 1015.9
20260902000745 16 168 3.2 11.3 0.13 0.15 0.13 94 1015.9
20260901235731 16 171 4.8 11.3 0.08 0.13 0.10 94 1015.9
20260901234731 16 177 1.6 9.7 0.05 0.08 0.05 93 1016.2
20260901234231 16 173 4.8 9.7 0.03 0.05 0.05 93 1016.3
20260901233729 16 169 4.8 9.7 0.00 0.05 0.03 93 1016.2
20260901232731 16 161 4.8 9.7 0.00 0.03 0.00 92 1016.3
20260901231730 16 151 1.6 4.8 0.00 0.03 0.00 91 1016.7
20260901230230 16 164 0.0 4.8 0.00 0.03 0.00 90 1016.8
20260901225731 16 153 0.0 1.6 0.00 0.03 0.03 90 1016.9
20260901225232 16 131 0.0 4.8 0.00 0.03 0.03 91 1016.8
20260901224230 16 137 1.6 3.2 0.00 0.03 0.03 90 1016.8
20260901223730 16 139 0.0 1.6 0.00 0.03 0.03 90 1016.9
20260901223231 16 137 0.0 1.6 0.00 0.03 0.03 90 1016.9
20260901222730 16 140 0.0 1.6 0.00 0.03 0.03 89 1017.0
20260901222230 16 136 0.0 0.0 0.00 0.03 0.03 89 1017.0
20260901221730 16 145 0.0 1.6 0.00 0.03 0.03 89 1017.0
20260901221232 16 266 0.0 0.0 0.00 0.03 0.03 89 1017.1
20260901220730 16 266 0.0 0.0 0.00 0.03 0.03 89 1017.0
20260901215731 16 266 0.0 0.0 0.00 0.03 0.03 88 1017.0
20260901215231 16 266 0.0 0.0 0.00 0.03 0.03 88 1017.1
20260901214732 16 266 0.0 0.0 0.00 0.03 0.03 88 1017.1
20260901214230 16 266 0.0 1.6 0.00 0.03 0.03 87 1017.1
20260901213731 16 317 0.0 3.2 0.00 0.03 0.03 87 1017.2
20260901213230 16 330 0.0 4.8 0.00 0.03 0.03 86 1017.3
20260901212731 16 309 1.6 4.8 0.00 0.03 0.03 86 1017.3
20260901211733 16 309 1.6 3.2 0.00 0.03 0.03 85 1017.2
20260901211231 16 300 1.6 3.2 0.00 0.03 0.03 86 1017.1
20260901210731 16 300 1.6 4.8 0.00 0.03 0.03 86 1017.1
20260901210232 16 295 3.2 9.7 0.00 0.03 0.03 86 1017.1
20260901205733 16 313 1.6 4.8 0.00 0.03 0.03 87 1017.1
20260901205232 16 315 0.0 4.8 0.00 0.03 0.03 87 1017.1
20260901204731 16 301 3.2 9.7 0.00 0.03 0.03 86 1017.2
20260901203730 16 320 1.6 8.0 0.00 0.03 0.03 87 1017.0
20260901203231 16 305 1.6 9.7 0.00 0.03 0.03 88 1016.9
20260901202732 16 325 0.0 4.8 0.00 0.03 0.03 90 1016.9
20260901202231 16 305 0.0 3.2 0.00 0.03 0.03 90 1016.9
20260901201732 16 313 1.6 4.8 0.00 0.03 0.03 91 1016.9
20260901201231 16 314 1.6 4.8 0.00 0.03 0.03 91 1017.0
20260901200731 16 290 3.2 11.3 0.00 0.03 0.03 91 1017.1
20260901200231 16 313 1.6 9.7 0.00 0.03 0.03 91 1016.9
20260901195732 16 291 1.6 8.0 0.00 0.03 0.03 91 1017.0
20260901195232 17 356 1.6 4.8 0.00 0.03 0.03 91 1017.0
20260901194231 17 231 1.6 4.8 0.00 0.03 0.03 91 1017.0
20260901193732 17 127 0.0 3.2 0.00 0.03 0.03 91 1016.9
20260901193231 17 175 1.6 3.2 0.00 0.03 0.03 91 1017.0
20260901192732 17 328 1.6 8.0 0.00 0.03 0.03 91 1017.0
20260901192232 17 291 1.6 4.8 0.00 0.03 0.03 91 1016.9
20260901191732 17 302 0.0 4.8 0.00 0.03 0.03 91 1016.8
20260901191231 17 313 1.6 3.2 0.00 0.03 0.03 91 1016.8
20260901190732 17 303 1.6 9.7 0.00 0.03 0.03 91 1016.9
20260901190233 17 299 1.6 11.3 0.00 0.03 0.03 91 1016.9
20260901185732 17 305 1.6 3.2 0.00 0.03 0.03 90 1016.8
20260901185232 17 334 0.0 3.2 0.00 0.03 0.03 90 1016.8
20260901184733 17 241 1.6 3.2 0.00 0.03 0.03 90 1016.8
20260901184232 17 300 1.6 4.8 0.00 0.03 0.03 89 1016.9
20260901183733 17 295 1.6 4.8 0.00 0.03 0.03 89 1016.9
20260901183232 17 296 0.0 8.0 0.00 0.03 0.03 89 1016.9
20260901182732 17 313 0.0 3.2 0.00 0.03 0.03 89 1017.0
20260901181232 17 310 0.0 8.0 0.00 0.03 0.03 88 1017.0
20260901180734 17 298 3.2 8.0 0.00 0.03 0.03 88 1017.0
20260901180232 17 297 1.6 8.0 0.00 0.03 0.03 88 1017.0
20260901175733 17 279 3.2 9.7 0.00 0.03 0.03 87 1017.0
20260901175232 17 293 3.2 9.7 0.00 0.03 0.03 87 1017.1
20260901174733 17 306 4.8 9.7 0.00 0.03 0.03 86 1017.1
20260901174233 17 303 4.8 9.7 0.00 0.03 0.03 85 1017.1
20260901173732 17 292 4.8 9.7 0.00 0.03 0.03 84 1017.1
20260901173232 17 292 1.6 8.0 0.00 0.03 0.03 83 1017.1
20260901172732 17 287 1.6 9.7 0.00 0.03 0.03 82 1017.1
20260901171734 17 286 6.4 12.9 0.00 0.03 0.03 81 1017.1
20260901170734 17 297 3.2 12.9 0.00 0.03 0.03 80 1017.0
20260901170233 17 300 1.6 11.3 0.00 0.03 0.03 80 1017.0
20260901165733 17 271 3.2 14.5 0.00 0.03 0.03 80 1016.9
20260901165233 17 9 1.6 9.7 0.00 0.03 0.03 80 1017.0
20260901164734 17 278 3.2 12.9 0.00 0.03 0.03 80 1017.0
20260901164234 17 307 3.2 9.7 0.00 0.03 0.03 80 1017.0
20260901163733 17 303 4.8 16.1 0.00 0.03 0.03 80 1017.0
20260901163233 17 293 4.8 12.9 0.00 0.03 0.03 79 1016.9
20260901162734 17 280 6.4 12.9 0.00 0.03 0.03 81 1017.0
20260901162234 17 276 4.8 14.5 0.00 0.03 0.03 85 1017.1
20260901161733 17 303 4.8 12.9 0.00 0.03 0.03 87 1017.1
20260901161233 17 281 4.8 14.5 0.00 0.03 0.03 87 1017.2
20260901160733 17 297 8.0 14.5 0.00 0.03 0.03 87 1017.1
20260901160233 18 318 3.2 19.3 0.00 0.03 0.03 87 1017.1
20260901155733 18 298 6.4 12.9 0.00 0.03 0.03 87 1017.2
20260901154733 18 306 4.8 19.3 0.00 0.03 0.03 86 1017.3
20260901154233 18 291 6.4 16.1 0.00 0.03 0.03 86 1017.1
20260901153735 18 302 6.4 11.3 0.00 0.03 0.03 86 1017.1
20260901153234 18 295 8.0 14.5 0.00 0.03 0.03 85 1017.1
20260901152735 18 285 4.8 9.7 0.00 0.03 0.03 83 1017.2
20260901152234 18 288 8.0 14.5 0.00 0.03 0.03 81 1017.3
20260901151734 18 320 4.8 12.9 0.00 0.03 0.03 79 1017.3
20260901150734 18 295 3.2 12.9 0.00 0.03 0.03 82 1017.4
20260901150233 18 298 6.4 16.1 0.00 0.03 0.03 83 1017.3
20260901145233 18 301 4.8 12.9 0.00 0.03 0.03 84 1017.6
20260901144235 18 298 6.4 19.3 0.00 0.03 0.03 83 1017.8
20260901143733 18 295 3.2 22.5 0.00 0.03 0.03 85 1017.8
20260901143234 18 301 8.0 22.5 0.00 0.03 0.03 86 1017.7
20260901142734 18 303 8.0 19.3 0.00 0.03 0.03 86 1017.8
20260901142234 18 295 8.0 19.3 0.00 0.03 0.03 86 1017.9
20260901141736 18 304 6.4 16.1 0.03 0.03 0.03 87 1017.8
20260901141234 18 301 6.4 14.5 0.03 0.03 0.03 88 1017.8
20260901140734 18 293 4.8 11.3 0.03 0.03 0.03 88 1017.9
20260901140234 17 285 4.8 12.9 0.03 0.03 0.03 88 1017.7
20260901135734 17 286 3.2 9.7 0.03 0.03 0.03 89 1017.7
20260901135234 17 35 3.2 9.7 0.03 0.03 0.03 90 1017.8
20260901134235 17 251 1.6 4.8 0.03 0.03 0.03 90 1017.8
20260901133734 17 309 3.2 9.7 0.03 0.03 0.03 90 1017.9
20260901133234 16 288 1.6 4.8 0.03 0.03 0.03 91 1018.0
20260901132235 16 289 1.6 4.8 0.03 0.03 0.03 88 1018.2
20260901131235 17 307 3.2 24.1 0.00 0.00 0.00 84 1018.3
20260901130735 18 295 14.5 27.4 0.00 0.00 0.00 81 1018.3
20260901130236 18 306 4.8 14.5 0.00 0.00 0.00 81 1018.2
20260901125235 18 299 6.4 25.7 0.00 0.00 0.00 79 1018.0
20260901124735 18 314 4.8 16.1 0.00 0.00 0.00 79 1017.9
20260901124235 18 291 9.7 22.5 0.00 0.00 0.00 78 1017.9
20260901123236 19 308 8.0 22.5 0.00 0.00 0.00 79 1017.8
20260901122735 19 288 8.0 20.9 0.00 0.00 0.00 79 1017.8
20260901122236 19 288 11.3 22.5 0.00 0.00 0.00 78 1017.8
20260901121735 19 331 9.7 20.9 0.00 0.00 0.00 77 1017.8
20260901120735 19 338 6.4 12.9 0.00 0.00 0.00 78 1017.8
20260901120236 19 300 4.8 19.3 0.00 0.00 0.00 80 1017.8
20260901115735 19 303 8.0 14.5 0.00 0.00 0.00 79 1017.8
20260901115235 18 291 8.0 25.7 0.00 0.00 0.00 80 1017.7
20260901114236 19 297 8.0 14.5 0.00 0.00 0.00 80 1017.8
20260901113735 18 292 8.0 16.1 0.00 0.00 0.00 80 1017.8
20260901113235 18 306 8.0 19.3 0.00 0.00 0.00 79 1017.8
20260901112735 19 325 1.6 20.9 0.00 0.00 0.00 79 1017.9
20260901112235 19 289 4.8 11.3 0.00 0.00 0.00 79 1017.8
20260901111237 19 197 3.2 11.3 0.00 0.00 0.00 79 1017.8
20260901110737 19 303 4.8 9.7 0.00 0.00 0.00 78 1017.8
20260901110236 19 293 3.2 9.7 0.00 0.00 0.00 78 1017.9
20260901105737 19 325 6.4 14.5 0.00 0.00 0.00 78 1017.9
20260901105237 19 333 3.2 9.7 0.00 0.00 0.00 78 1017.9
20260901104737 19 299 4.8 9.7 0.00 0.00 0.00 77 1018.0
20260901104237 19 299 4.8 11.3 0.00 0.00 0.00 78 1017.9
20260901103238 19 300 3.2 8.0 0.00 0.00 0.00 78 1017.8
20260901102736 19 317 3.2 11.3 0.00 0.00 0.00 78 1017.8
20260901101736 18 304 3.2 11.3 0.00 0.00 0.00 80 1017.9
20260901101236 18 270 4.8 12.9 0.00 0.00 0.00 79 1017.9
20260901100738 18 311 8.0 14.5 0.00 0.00 0.00 79 1017.9
20260901100237 19 295 4.8 19.3 0.00 0.00 0.00 79 1017.9
20260901095736 19 303 6.4 12.9 0.00 0.00 0.00 79 1017.9
20260901095236 19 244 3.2 9.7 0.00 0.00 0.00 80 1018.0
20260901094236 18 208 1.6 4.8 0.00 0.00 0.00 81 1017.8
20260901093736 18 310 4.8 9.7 0.00 0.00 0.00 81 1017.9
20260901093236 18 285 4.8 9.7 0.00 0.00 0.00 81 1017.8
20260901092738 18 289 3.2 9.7 0.00 0.00 0.00 82 1017.8
20260901092237 18 314 3.2 9.7 0.00 0.00 0.00 82 1017.8
20260901091736 18 300 1.6 11.3 0.00 0.00 0.00 82 1017.8
20260901091237 18 299 4.8 11.3 0.00 0.00 0.00 82 1017.8
20260901085738 18 299 4.8 9.7 0.00 0.00 0.00 82 1017.8
20260901085237 18 273 3.2 9.7 0.00 0.00 0.00 83 1017.8
20260901084738 18 258 1.6 8.0 0.00 0.00 0.00 83 1017.8
20260901084238 17 264 3.2 9.7 0.00 0.00 0.00 84 1017.8
20260901083237 17 300 3.2 8.0 0.00 0.00 0.00 85 1017.6
20260901082739 17 281 1.6 9.7 0.00 0.00 0.00 85 1017.5
20260901082237 17 298 1.6 4.8 0.00 0.00 0.00 86 1017.6
20260901081737 16 257 0.0 8.0 0.00 0.00 0.00 87 1017.6
20260901080738 16 292 3.2 9.7 0.00 0.00 0.00 88 1017.8
20260901080236 16 291 1.6 9.7 0.00 0.00 0.00 88 1017.9
20260901075737 16 290 1.6 4.8 0.00 0.00 0.00 89 1018.0
20260901075238 15 297 1.6 9.7 0.00 0.00 0.00 90 1017.9
20260901074237 15 290 3.2 8.0 0.00 0.00 0.00 90 1018.1
20260901073737 15 289 0.0 3.2 0.00 0.00 0.00 91 1018.1
20260901073237 15 284 0.0 3.2 0.00 0.00 0.00 91 1018.0
20260901072238 15 275 0.0 1.6 0.00 0.00 0.00 90 1017.9
20260901071737 15 138 0.0 0.0 0.00 0.00 0.00 91 1017.9
20260901071238 15 141 0.0 1.6 0.00 0.00 0.00 91 1018.0
20260901070738 14 109 0.0 0.0 0.00 0.00 0.00 92 1018.0
20260901065737 13 107 0.0 0.0 0.00 0.00 0.00 92 1017.9
20260901065238 13 107 0.0 0.0 0.00 0.00 0.00 92 1017.9
20260901064737 13 145 0.0 1.6 0.00 0.00 0.00 92 1017.9
20260901064239 13 112 0.0 0.0 0.00 0.00 0.00 92 1017.9
20260901063737 13 112 0.0 1.6 0.00 0.00 0.00 91 1018.0
20260901063238 13 127 0.0 0.0 0.00 0.00 0.00 92 1017.9
20260901062237 13 133 0.0 1.6 0.00 0.00 0.00 92 1018.0
20260901061738 13 24 0.0 1.6 0.00 0.00 0.00 91 1018.0
20260901061237 13 6 0.0 1.6 0.00 0.00 0.00 91 1018.0